Zurück zum Katalog

STARLINK-36655

AktivKommunikationVLEO
NORAD 67834·PAYLOAD·🇺🇸 United States

Gestartet Feb 16, 2026 von Vandenberg Space Force Base

Loading…

Nächste Überflüge (nächste 24 Stunden)

TLE

AktuellSource: CelesTrak SupGP

Epoche: Sep 15, 2026, 03:42 UTC

1 67834C 26033P   26258.15465278 -.00017683  00000+0 -64054-3 0  2589
2 67834  42.9995 276.7058 0001433 265.6910 115.7913 15.27584759    14

Verfolge STARLINK-36655 in Echtzeit mit AllMySat

Download on the App Store